Latest Weather Observations for Cocos Island

IDW60801

Issued at 11:32 pm WST Thursday 28 May 2015 (issued every 30 minutes, with the page automatically refreshed every 10 minutes)

About weather observations | Map of weather stations | Latest weather observations for WA | Other Formats
Station Details ID: 200284 Name: COCOS ISLAND AIRPORT Lat: -12.19 Lon: 96.83 Height: 3.0 m
Data from the previous 72 hours. | See also: Recent months at Cocos Island
Date/Time
WST
Temp
°C
App
Temp
°C
Dew
Point
Rel
Hum
%
Delta-T
°C
Wind Press
QNH
hPa
Press
MSL
hPa
Rain
since 9 am
mm
Dir
 
Spd
km/h
Gust
km/h
Spd
kts
Gust
kts
28/11:30pm 26.3 26.0 23.2 83 2.1 ESE 30 43 16 23 1014.3 - 0.0
28/11:00pm 26.3 26.4 23.2 83 2.1 ESE 28 44 15 24 1014.2 1014.2 0.0
28/10:30pm 27.0 26.5 22.9 78 2.8 ESE 30 39 16 21 1013.9 - 0.0
28/10:00pm 26.8 27.9 23.1 80 2.5 E 22 35 12 19 1013.8 - 0.0
28/09:30pm 26.9 27.6 22.9 79 2.7 E 24 37 13 20 1013.6 - 0.0
28/09:00pm 26.3 25.2 22.4 79 2.6 E 32 44 17 24 1013.4 - 0.0
28/08:30pm 27.2 25.7 22.8 77 3.0 ESE 35 43 19 23 1012.9 - 0.0
28/08:00pm 27.1 26.6 22.8 77 2.9 ESE 30 41 16 22 1012.6 1012.6 0.0
28/07:30pm 27.2 26.3 23.1 78 2.8 ESE 33 41 18 22 1012.2 - 0.0
28/07:00pm 27.3 27.3 23.0 77 2.9 ESE 28 37 15 20 1011.9 - 0.0
28/06:30pm 27.5 27.1 23.1 77 3.0 ESE 30 39 16 21 1011.7 - 0.0
28/06:00pm 27.7 27.5 22.8 74 3.3 SE 28 39 15 21 1011.4 - 0.0
28/05:30pm 27.6 27.2 22.3 73 3.6 ESE 28 35 15 19 1011.2 - 0.0
28/05:00pm 27.6 27.2 22.4 73 3.5 ESE 28 39 15 21 1011.0 1011.0 0.0
28/04:30pm 27.7 26.3 21.9 70 3.9 ESE 32 41 17 22 1011.2 - 0.0
28/04:00pm 27.8 27.1 22.5 73 3.6 ESE 30 43 16 23 1011.3 - 0.0
28/03:30pm 28.3 27.5 22.4 70 4.0 ESE 30 41 16 22 1011.5 - 0.0
28/03:00pm 28.0 26.6 21.9 69 4.1 ESE 32 41 17 22 1011.5 - 0.0
28/02:30pm 28.1 26.7 22.0 69 4.1 ESE 32 43 17 23 1011.6 - 0.0
28/02:00pm 27.9 26.3 21.9 70 4.0 ESE 33 43 18 23 1012.0 1012.0 0.0
28/01:00pm 28.1 27.0 21.7 68 4.3 ESE 30 43 16 23 1012.5 - 0.0
28/12:30pm 27.9 26.7 21.6 68 4.2 ESE 30 39 16 21 1012.8 - 0.0
28/12:00pm 27.8 25.9 21.0 66 4.5 ESE 32 43 17 23 1013.0 - 0.0
28/11:30am 27.8 26.1 21.3 67 4.3 ESE 32 43 17 23 1013.3 - 0.0
28/11:00am 27.4 24.9 20.2 65 4.7 ESE 33 43 18 23 1013.6 1013.6 2.2
28/10:30am 27.2 24.4 20.2 65 4.6 ESE 35 44 19 24 1013.5 - 2.2
28/10:00am 26.9 24.2 20.5 68 4.2 ESE 35 43 19 23 1013.2 - 2.2
28/09:30am 26.9 24.2 20.5 68 4.2 ESE 35 43 19 23 1013.1 - 2.2
28/09:00am 26.5 24.2 20.6 70 3.9 ESE 33 44 18 24 1012.7 - 2.2
28/08:30am 26.3 23.4 20.0 68 4.1 SE 35 44 19 24 1012.3 - 2.2
28/08:00am 26.1 23.7 20.4 71 3.7 ESE 33 41 18 22 1012.0 1012.0 2.2
28/07:30am 26.1 24.2 20.9 73 3.4 SE 32 43 17 23 1011.8 - 2.2
28/07:00am 26.2 23.6 20.7 71 3.6 SE 35 44 19 24 1011.5 - 2.2
28/06:30am 26.1 24.3 21.1 74 3.3 SE 32 46 17 25 1011.3 - 2.2
28/06:00am 26.2 23.3 20.9 72 3.5 SE 37 46 20 25 1011.3 - 2.2
28/05:30am 26.3 24.0 21.2 73 3.4 SE 35 46 19 25 1011.1 - 2.2
28/05:00am 26.3 24.5 21.5 75 3.2 SE 33 44 18 24 1011.1 1011.1 2.2
28/04:30am 26.4 24.4 21.8 76 3.1 SE 35 44 19 24 1011.1 - 2.2
28/04:00am 26.4 24.9 22.1 77 2.9 SE 33 43 18 23 1011.2 - 2.2
28/03:30am 26.5 23.9 21.5 74 3.3 SE 37 44 20 24 1011.4 - 2.2
28/03:00am 26.3 24.4 22.0 77 2.9 SE 35 43 19 23 1011.6 - 2.2
28/02:30am 25.6 25.4 22.8 84 1.9 ESE 28 39 15 21 1012.1 - 2.2
28/02:00am 26.5 24.7 22.3 78 2.8 ESE 35 43 19 23 1012.3 1012.3 2.0
28/01:30am 26.8 26.0 21.7 73 3.4 ESE 28 39 15 21 1012.6 - 2.0
28/01:00am 26.7 25.2 21.8 74 3.3 ESE 32 41 17 22 1012.8 - 2.0
28/12:30am 26.7 26.0 21.8 74 3.3 ESE 28 37 15 20 1013.1 - 2.0
28/12:00am 26.7 25.3 21.1 71 3.7 ESE 30 39 16 21 1013.2 - 2.0
 
Date/Time
WST
Temp
°C
App
Temp
°C
Dew
Point
Rel
Hum
%
Delta-T
°C
Wind Press
QNH
hPa
Press
MSL
hPa
Rain
since 9 am
mm
Dir
 
Spd
km/h
Gust
km/h
Spd
kts
Gust
kts
27/11:30pm 26.8 25.0 21.2 71 3.7 ESE 32 41 17 22 1013.3 - 2.0
27/11:00pm 26.8 25.0 21.1 71 3.8 SE 32 41 17 22 1013.1 1013.1 2.0
27/10:30pm 26.6 25.5 21.8 75 3.2 SE 30 39 16 21 1013.2 - 2.0
27/10:00pm 26.6 25.0 21.6 74 3.3 SE 32 39 17 21 1013.2 - 2.0
27/09:30pm 26.9 24.8 21.0 70 3.9 SE 33 41 18 22 1013.1 - 2.0
27/09:00pm 26.9 24.6 21.3 71 3.7 ESE 35 44 19 24 1012.8 - 2.0
27/08:30pm 26.8 25.2 21.5 72 3.5 ESE 32 41 17 22 1012.5 - 2.0
27/08:00pm 26.8 24.6 21.4 72 3.6 ESE 35 44 19 24 1012.2 1012.2 2.0
27/07:30pm 26.9 25.4 22.1 75 3.2 ESE 33 43 18 23 1011.9 - 2.0
27/07:00pm 26.9 25.0 22.0 74 3.3 ESE 35 44 19 24 1011.8 - 2.0
27/06:30pm 26.7 25.5 22.7 79 2.7 ESE 33 44 18 24 1011.5 - 2.0
27/06:16pm 26.3 25.2 22.9 81 2.3 ESE 33 44 18 24 1011.5 - 2.0
27/06:00pm 25.9 25.3 23.4 86 1.7 SE 32 44 17 24 1011.5 - 2.0
27/05:52pm 25.3 22.9 22.6 85 1.8 SE 39 48 21 26 1011.5 - 0.6
27/05:30pm 27.6 26.6 22.6 74 3.4 ESE 32 43 17 23 1011.2 - 0.6
27/05:00pm 27.6 26.2 22.3 73 3.6 ESE 33 44 18 24 1011.1 1011.1 0.6
27/04:30pm 27.5 26.2 22.5 74 3.4 ESE 33 43 18 23 1011.0 - 0.6
27/04:00pm 27.6 26.4 22.6 74 3.4 SE 33 43 18 23 1011.0 - 0.6
27/03:30pm 28.2 26.8 22.3 70 4.0 SE 33 41 18 22 1011.2 - 0.6
27/03:00pm 27.9 26.7 22.7 73 3.5 SE 33 43 18 23 1011.7 - 0.6
27/02:30pm 27.9 27.0 22.9 74 3.4 SE 32 43 17 23 1012.3 - 0.6
27/02:00pm 27.8 26.7 22.8 74 3.4 SE 33 44 18 24 1012.6 1012.6 0.4
27/01:30pm 27.5 26.4 23.4 78 2.8 SE 35 46 19 25 1013.0 - 0.4
27/01:00pm 27.3 26.5 23.3 79 2.7 SE 33 46 18 25 1013.4 - 0.4
27/12:54pm 27.0 26.0 23.0 79 2.7 ESE 33 46 18 25 1013.5 - 0.4
27/12:37pm 26.5 25.5 23.6 84 2.0 SE 35 44 19 24 1013.5 - 0.4
27/12:30pm 27.2 27.0 23.4 80 2.6 SE 30 43 16 23 1013.5 - 0.2
27/12:00pm 28.0 26.4 21.9 69 4.1 ESE 33 43 18 23 1013.8 - 0.2
27/11:30am 27.5 26.0 22.1 72 3.6 SE 33 41 18 22 1014.1 - 0.2
27/11:00am 27.9 26.6 22.1 70 3.9 SE 32 37 17 20 1014.2 1014.2 7.8
27/10:30am 27.7 26.1 21.9 70 3.9 ESE 33 43 18 23 1014.3 - 7.8
27/10:00am 27.2 24.8 21.0 69 4.1 ESE 35 48 19 26 1014.2 - 7.8
27/09:30am 26.9 25.2 21.7 73 3.5 ESE 33 43 18 23 1013.9 - 7.8
27/09:00am 26.5 24.9 21.9 76 3.1 SE 33 41 18 22 1013.6 - 7.8
27/08:30am 26.6 24.7 21.3 72 3.5 ESE 33 43 18 23 1013.4 - 7.8
27/08:00am 26.5 24.4 21.7 75 3.2 ESE 35 46 19 25 1013.0 1013.0 7.8
27/07:30am 26.4 24.7 21.4 74 3.3 ESE 32 43 17 23 1012.8 - 7.8
27/07:00am 26.5 24.9 21.9 76 3.1 SE 33 41 18 22 1012.5 - 7.8
27/06:30am 26.0 25.1 22.9 83 2.1 SE 32 41 17 22 1012.5 - 7.8
27/06:00am 26.2 24.8 22.2 78 2.7 SE 33 46 18 25 1012.4 - 7.8
27/05:30am 26.2 26.4 23.4 84 1.9 SE 28 39 15 21 1012.3 - 7.8
27/05:00am 26.1 25.2 23.2 84 2.0 SE 33 43 18 23 1012.5 1012.5 7.8
27/04:30am 26.0 25.1 23.1 84 2.0 SE 33 46 18 25 1012.5 - 7.8
27/04:01am 26.3 25.6 23.2 83 2.1 SE 32 39 17 21 1012.8 - 7.8
27/04:00am 26.2 25.7 22.8 81 2.3 SE 30 39 16 21 1012.8 - 7.8
27/03:34am 25.3 25.3 23.8 91 1.0 SE 30 37 16 20 1013.1 - 6.6
27/03:30am 25.5 24.9 23.4 88 1.4 SE 32 41 17 22 1013.1 - 6.0
27/03:28am 25.5 24.9 23.4 88 1.4 SE 32 41 17 22 1013.1 - 6.0
27/03:00am 25.4 24.8 23.3 88 1.4 SE 32 43 17 23 1013.3 - 5.4
27/02:57am 25.6 25.1 23.5 88 1.4 SE 32 43 17 23 1013.3 - 5.4
27/02:30am 26.3 26.0 23.8 86 1.7 SE 32 41 17 22 1013.4 - 5.4
27/02:00am 26.4 25.8 23.3 83 2.1 SE 32 39 17 21 1013.6 1013.6 5.4
27/01:30am 26.7 26.6 23.5 82 2.2 ESE 30 39 16 21 1013.7 - 5.4
27/01:00am 26.8 26.4 23.1 80 2.5 ESE 30 41 16 22 1013.9 - 5.4
27/12:30am 26.6 27.0 23.7 84 2.0 SE 28 39 15 21 1014.0 - 5.4
27/12:22am 26.5 26.6 23.9 85 1.8 SE 30 41 16 22 1014.0 - 5.4
27/12:00am 24.9 24.9 23.1 90 1.2 E 28 41 15 22 1014.3 - 4.8
 
Date/Time
WST
Temp
°C
App
Temp
°C
Dew
Point
Rel
Hum
%
Delta-T
°C
Wind Press
QNH
hPa
Press
MSL
hPa
Rain
since 9 am
mm
Dir
 
Spd
km/h
Gust
km/h
Spd
kts
Gust
kts
26/11:47pm 25.1 24.1 22.6 86 1.7 E 32 43 17 23 1014.4 - 0.6
26/11:30pm 26.1 24.3 22.2 79 2.6 SE 35 43 19 23 1014.4 - 0.0
26/11:00pm 26.7 27.4 23.0 80 2.5 ESE 24 32 13 17 1014.2 1014.2 0.0
26/10:30pm 27.0 26.9 23.5 81 2.4 SE 30 37 16 20 1014.2 - 0.0
26/10:00pm 27.1 27.2 23.3 80 2.6 ESE 28 35 15 19 1014.4 - 0.0
26/09:30pm 27.1 27.2 23.3 80 2.6 SE 28 35 15 19 1014.2 - 0.0
26/09:00pm 27.1 27.8 23.6 81 2.4 SE 26 35 14 19 1013.9 - 0.0
26/08:30pm 27.4 27.8 23.1 77 2.9 ESE 26 35 14 19 1013.7 - 0.0
26/08:00pm 27.4 27.2 22.7 75 3.2 ESE 28 33 15 18 1013.3 1013.3 0.0
26/07:30pm 27.5 28.6 23.6 79 2.7 SE 24 33 13 18 1013.1 - 0.0
26/07:00pm 27.7 28.8 23.6 78 2.8 ESE 24 32 13 17 1013.0 - 0.0
26/06:30pm 27.8 28.2 23.1 75 3.2 ESE 26 33 14 18 1012.7 - 0.0
26/06:00pm 28.1 28.3 23.4 75 3.2 SE 28 35 15 19 1012.4 - 0.0
26/05:30pm 28.2 28.8 23.5 75 3.2 SE 26 35 14 19 1012.2 - 0.0
26/05:00pm 28.5 28.9 23.7 75 3.3 SE 28 33 15 18 1012.1 1012.1 0.0
26/04:30pm 28.6 29.5 23.4 73 3.6 SE 24 32 13 17 1012.1 - 0.0
26/04:00pm 28.7 29.7 23.5 73 3.6 ESE 24 32 13 17 1012.3 - 0.0
26/03:30pm 28.8 29.9 23.6 73 3.6 SE 24 32 13 17 1012.3 - 0.0
26/03:00pm 28.9 29.6 23.7 73 3.6 SE 26 33 14 18 1012.6 - 0.0
26/02:30pm 28.7 29.5 23.8 75 3.4 ESE 26 33 14 18 1013.1 - 0.0
26/02:00pm 28.8 28.8 23.1 71 3.9 ESE 28 33 15 18 1013.4 1013.4 0.0
26/01:30pm 28.4 28.6 22.8 71 3.8 ESE 26 33 14 18 1013.7 - 0.0
26/01:00pm 28.3 29.1 23.8 76 3.1 ESE 26 32 14 17 1014.1 - 0.0
26/12:30pm 28.4 28.7 23.0 72 3.7 ESE 26 33 14 18 1014.6 - 0.0
26/12:00pm 28.1 28.5 23.1 74 3.4 SE 26 33 14 18 1014.7 - 0.0
26/11:30am 28.3 29.5 23.8 76 3.1 SE 24 33 13 18 1014.6 - 0.0
26/11:00am 27.7 27.5 22.7 74 3.4 ESE 28 33 15 18 1014.7 1014.7 1.8
26/10:30am 28.2 29.0 23.2 74 3.4 ESE 24 33 13 18 1014.9 - 1.8
26/10:00am 27.7 29.0 23.3 77 3.0 ESE 22 32 12 17 1014.8 - 1.8
26/09:30am 27.7 28.6 23.3 77 3.0 ESE 24 30 13 16 1014.3 - 1.8
26/09:00am 27.0 27.8 22.4 76 3.1 ESE 22 30 12 16 1014.1 - 1.8
26/08:30am 27.0 28.0 22.9 78 2.8 ESE 22 30 12 16 1013.9 - 1.8
26/08:00am 26.8 28.2 22.8 79 2.7 ESE 20 28 11 15 1013.6 1013.6 1.8
26/07:30am 26.8 27.5 23.0 79 2.6 ESE 24 32 13 17 1013.2 - 1.8
26/07:00am 26.8 27.3 22.7 78 2.8 ESE 24 33 13 18 1013.0 - 1.8
26/06:30am 26.8 27.4 22.8 79 2.7 ESE 24 32 13 17 1012.9 - 1.8
26/06:00am 26.7 27.7 22.9 79 2.6 ESE 22 32 12 17 1012.7 - 1.8
26/05:30am 26.7 27.0 22.2 76 3.0 ESE 24 30 13 16 1012.7 - 1.8
26/05:00am 25.7 28.8 23.5 88 1.5 E 13 20 7 11 1013.0 1013.0 1.8
26/04:30am 25.3 28.2 23.1 87 1.5 ESE 13 19 7 10 1013.0 - 1.8
26/04:18am 24.9 26.2 22.7 87 1.5 E 20 32 11 17 1013.2 - 1.8
26/04:00am 24.8 24.4 22.4 86 1.6 E 28 33 15 18 1013.4 - 1.6
26/03:52am 25.2 25.4 22.8 86 1.6 E 26 35 14 19 1013.4 - 0.6
26/03:30am 26.7 28.6 23.5 82 2.2 E 19 24 10 13 1013.4 - 0.2
26/03:00am 26.8 29.0 23.3 81 2.4 E 17 22 9 12 1013.8 - 0.2
26/02:30am 26.8 28.9 23.1 80 2.5 E 17 20 9 11 1014.2 - 0.2
26/02:00am 27.0 28.4 22.6 77 3.0 E 19 26 10 14 1014.5 1014.5 0.2
26/01:30am 27.0 28.3 22.7 77 2.9 E 20 26 11 14 1014.8 - 0.2

Other Formats:

Comma delimited format used in spreadsheet applications
http://www.bom.gov.au/fwo/IDW60801/IDW60801.96996.axf

JavaScript Object Notation format (JSON) in row-major order
http://www.bom.gov.au/fwo/IDW60801/IDW60801.96996.json